time_stamp(utc),avg(mph),gust(mph),direction(deg),12m_air_temp(f),sonic_u(cm/s),sonic_v(cm/s),sonic_w(cm/s),pressure,2m_air_temp(f),pyranometer(W/m^2)
"2020-03-20 00:02:45+00",7.5,8.5,,46,-624,1668,-904,1023.82,46.4,0
"2020-03-20 00:07:45+00",9.0,10.0,,45.9,-523,1623,-851,1023.73,46.3,0
"2020-03-20 00:12:45+00",10.2,11.2,,45.9,-641,1856,-1025,1023.47,46.3,0
"2020-03-20 00:17:45+00",8.1,9.1,,46,-594,1626,-880,1023.57,46.3,0
"2020-03-20 00:22:45+00",8.9,9.9,,45.9,-428,1391,-748,1023.64,46.3,0
"2020-03-20 00:27:45+00",8.2,9.2,,45.9,-266,1112,-588,1023.68,46.3,0
"2020-03-20 00:32:45+00",8.7,9.7,,45.9,-754,1950,-1067,1023.64,46.3,0
"2020-03-20 00:37:45+00",6.5,7.5,,45.9,-498,1285,-730,1023.83,46.2,0
"2020-03-20 00:42:45+00",5.9,6.9,,45.9,-287,951,-520,1023.84,46.2,0
"2020-03-20 00:47:45+00",7.9,8.9,,45.9,-472,1386,-770,1023.72,46.1,0
"2020-03-20 00:52:45+00",11.1,12.1,,45.8,-870,2368,-1285,1023.36,46.2,0
"2020-03-20 00:57:45+00",11.6,12.6,,45.8,-469,1756,-912,1023.32,46.2,0
"2020-03-20 01:02:45+00",9.8,10.8,,45.9,-512,1636,-878,1023.41,46.2,0
"2020-03-20 01:07:45+00",7.7,8.7,,45.8,-720,1839,-1008,1023.64,46.1,0
"2020-03-20 01:12:45+00",7.0,8.0,,45.8,-579,1454,-836,1023.89,46.1,0
"2020-03-20 01:17:45+00",7.8,8.8,,45.8,-589,1531,-879,1023.8,46.1,0
"2020-03-20 01:22:45+00",9.2,10.2,,45.8,-630,1661,-977,1023.7,46.1,0
"2020-03-20 01:27:45+00",8.8,9.8,,45.8,-745,1900,-1075,1023.47,46.1,0
"2020-03-20 01:32:45+00",7.9,9.9,,45.9,-436,1183,-696,1023.6,46.1,0
"2020-03-20 01:37:45+00",7.2,8.2,,45.9,-419,1183,-671,1023.44,46,0
"2020-03-20 01:42:45+00",10.4,12.4,,45.8,-776,1987,-1147,1023.26,46,0
"2020-03-20 01:47:45+00",11.9,12.9,,45.7,-236,1115,-691,1023.01,46,0
"2020-03-20 01:52:45+00",11.3,13.3,,45.7,-511,1672,-943,1022.85,45.9,0
"2020-03-20 01:57:45+00",11.2,13.2,,45.8,-256,1130,-644,1022.76,46,0
"2020-03-20 02:02:45+00",11.0,13.0,,45.9,-515,1535,-922,1023.04,45.9,0
"2020-03-20 02:07:45+00",11.3,12.3,,45.9,-393,1243,-791,1023.37,46,0
"2020-03-20 02:12:45+00",8.4,9.4,,46,73,252,-200,1023.45,46,0
"2020-03-20 02:17:45+00",10.5,13.5,,45.9,-189,819,-548,1023.37,46,0
"2020-03-20 02:22:45+00",10.4,11.4,,45.8,11,491,-325,1023.26,46,0
"2020-03-20 02:27:45+00",9.6,11.6,,45.9,-140,617,-447,1023.39,46,0
"2020-03-20 02:32:45+00",10.7,11.7,,45.7,-105,592,-464,1023.55,45.9,0
"2020-03-20 02:37:45+00",10.5,12.5,,45.8,46,325,-319,1023.56,45.9,0
"2020-03-20 02:42:45+00",10.8,12.8,,45.7,-423,1130,-758,1023.47,45.9,0
"2020-03-20 02:47:45+00",10.9,12.9,,45.8,178,200,-201,1023.36,45.9,0
"2020-03-20 02:52:45+00",11.4,13.4,,45.7,443,-341,31,1023.34,45.9,0
"2020-03-20 02:57:45+00",12.8,14.8,,45.7,499,-289,-1,1023.06,45.9,0
"2020-03-20 03:02:45+00",12.8,14.8,,45.6,507,-261,6,1023.09,45.8,0
"2020-03-20 03:07:45+00",11.9,14.9,,45.7,453,-273,-2,1023.1,45.8,0
"2020-03-20 03:12:45+00",11.3,14.3,,45.7,446,-254,14,1022.86,45.8,0
"2020-03-20 03:17:45+00",12.7,14.7,,45.7,510,-262,1,1022.77,45.8,0
"2020-03-20 03:22:45+00",13.2,14.2,,45.7,504,-307,-13,1022.82,45.8,0
"2020-03-20 03:27:45+00",14.7,15.7,,45.7,552,-330,-19,1022.7,45.8,0
"2020-03-20 03:32:45+00",13.7,15.7,,45.7,528,-311,7,1022.48,45.8,0
"2020-03-20 03:37:45+00",9.7,11.7,,45.7,378,-214,32,1022.61,45.8,0
"2020-03-20 03:42:45+00",14.7,15.7,,45.6,544,-341,-19,1022.42,45.7,0
"2020-03-20 03:47:45+00",13.8,14.8,,45.7,513,-324,-19,1022.45,45.8,0
"2020-03-20 03:52:45+00",12.5,13.5,,45.7,462,-294,-6,1022.29,45.8,0
"2020-03-20 03:57:45+00",12.8,14.8,,45.8,499,-271,1,1022.01,45.9,0
"2020-03-20 04:02:45+00",12.7,13.7,,45.8,462,-321,-15,1022.13,45.9,0
"2020-03-20 04:07:45+00",11.0,13.0,,45.9,382,-308,9,1022.11,45.9,0
"2020-03-20 04:12:45+00",13.0,14.0,,45.9,420,-391,-11,1021.9,45.9,0
"2020-03-20 04:17:45+00",13.1,14.1,,45.9,438,-368,-27,1021.79,45.9,0
"2020-03-20 04:22:45+00",10.5,13.5,,45.9,323,-326,-7,1021.88,45.9,0
"2020-03-20 04:27:45+00",13.1,15.1,,45.8,429,-379,-18,1021.84,45.9,0
"2020-03-20 04:32:45+00",13.8,14.8,,45.9,445,-406,-18,1021.86,45.9,0
"2020-03-20 04:37:45+00",12.6,13.6,,45.9,386,-399,-6,1021.84,45.9,0
"2020-03-20 04:42:45+00",13.1,14.1,,45.9,434,-377,-19,1021.57,45.9,0
"2020-03-20 04:47:45+00",11.2,12.2,,45.9,401,-281,2,1021.38,45.9,0
"2020-03-20 04:52:45+00",11.9,12.9,,45.9,423,-306,-13,1021.47,45.9,0
"2020-03-20 04:57:45+00",9.6,12.6,,45.9,368,-218,1,1021.28,46,0
"2020-03-20 05:02:45+00",9.7,11.7,,46,402,-137,3,1021.32,46.1,0
"2020-03-20 05:07:45+00",11.0,12.0,,45.9,423,-236,-9,1021.2,46,0
"2020-03-20 05:12:45+00",10.7,11.7,,46,416,-226,-1,1021.08,46.1,0
"2020-03-20 05:17:45+00",9.9,11.9,,46,378,-233,12,1020.98,46.1,0
"2020-03-20 05:22:45+00",10.5,11.5,,46,356,-297,-7,1020.97,46.1,0
"2020-03-20 05:27:45+00",9.1,11.1,,46,302,-265,-4,1020.95,46.1,0
"2020-03-20 05:32:45+00",10.9,11.9,,46,338,-329,-14,1020.9,46.1,0
"2020-03-20 05:37:45+00",11.4,12.4,,46,346,-361,-17,1020.74,46.1,0
"2020-03-20 05:42:45+00",13.3,14.3,,46,371,-448,-23,1020.71,46.1,0
"2020-03-20 05:47:45+00",11.4,13.4,,46,308,-388,-15,1020.76,46.1,0
"2020-03-20 05:52:45+00",9.7,10.7,,46,295,-307,-10,1020.68,46.1,0
"2020-03-20 05:57:45+00",10.8,11.8,,46.1,293,-361,-21,1020.52,46.1,0
"2020-03-20 06:02:45+00",8.4,10.4,,46.2,238,-281,15,1020.46,46.1,0
"2020-03-20 06:07:45+00",13.0,14.0,,46.1,350,-453,-17,1020.23,46.1,0
"2020-03-20 06:12:45+00",12.3,15.3,,46.1,343,-417,-19,1019.98,46.1,0
"2020-03-20 06:17:45+00",13.9,14.9,,46.1,389,-457,-16,1019.66,46,0
"2020-03-20 06:22:45+00",13.9,15.9,,46.1,373,-480,-20,1019.4,46,0
"2020-03-20 06:27:45+00",14.4,15.4,,46.1,413,-474,-10,1019.31,46.1,0
"2020-03-20 06:32:45+00",14.0,15.0,,46.1,362,-486,-19,1019.28,46.1,0
"2020-03-20 06:37:45+00",11.9,12.9,,46.2,295,-419,-18,1019.26,46.1,0
"2020-03-20 06:42:45+00",11.6,14.6,,46.1,274,-421,-11,1019.25,46.1,0
"2020-03-20 06:47:45+00",8.3,10.3,,46.1,241,-266,-3,1019.33,46.1,0
"2020-03-20 06:52:45+00",8.3,10.3,,46.1,252,-266,-13,1019.29,46.1,0
"2020-03-20 06:57:45+00",8.2,10.2,,46.2,248,-254,-7,1019.12,46.1,0
"2020-03-20 07:02:45+00",9.0,10.0,,46.2,250,-307,-11,1019.17,46.1,0
"2020-03-20 07:07:45+00",9.8,11.8,,46.2,284,-312,-9,1018.96,46.2,0
"2020-03-20 07:12:45+00",9.7,10.7,,46.3,272,-326,4,1018.68,46.2,0
"2020-03-20 07:17:45+00",10.8,12.8,,46.4,231,-413,-12,1018.65,46.3,0
"2020-03-20 07:22:45+00",11.4,12.4,,46.3,266,-420,-6,1018.46,46.3,0
"2020-03-20 07:27:45+00",11.3,12.3,,46.3,261,-423,-24,1018.25,46.3,0
"2020-03-20 07:32:45+00",10.5,12.5,,46.4,243,-385,-7,1018.1,46.3,0
"2020-03-20 07:37:45+00",11.2,12.2,,46.4,226,-431,-16,1018.04,46.4,0
"2020-03-20 07:42:45+00",9.6,10.6,,46.4,159,-388,-9,1018.03,46.3,0
"2020-03-20 07:47:45+00",9.5,11.5,,46.5,145,-384,4,1018,46.4,0
"2020-03-20 07:52:45+00",9.5,11.5,,46.5,124,-385,3,1017.96,46.4,0
"2020-03-20 07:57:45+00",9.8,11.8,,46.5,122,-403,-9,1017.9,46.4,0
"2020-03-20 08:02:45+00",8.4,10.4,,46.6,2078,-350,-948,1017.73,46.5,0
"2020-03-20 08:07:45+00",8.5,9.5,,46.7,4577,-289,-2155,1017.6,46.5,0
"2020-03-20 09:27:45+00",3.6,4.6,,48.7,-614,-132,261,1017.03,48.3,0
"2020-03-20 09:32:45+00",4.1,5.1,,48.7,-237,-157,83,1017,48.4,0
"2020-03-20 09:37:45+00",3.4,4.4,,48.7,-109,-131,34,1016.95,48.4,0
"2020-03-20 09:42:45+00",3.7,4.7,,48.8,-118,-139,30,1016.86,48.5,0
"2020-03-20 09:47:45+00",3.2,4.2,,48.9,-285,-111,107,1016.89,48.5,0
"2020-03-20 09:52:45+00",4.8,5.8,,49,-145,-188,42,1016.77,48.7,0
"2020-03-20 09:57:45+00",4.1,5.1,,49.1,-130,-162,40,1016.65,48.8,0
"2020-03-20 10:02:45+00",6.0,7.0,,49.3,-118,-232,17,1016.66,48.9,0
"2020-03-20 10:07:45+00",5.8,7.8,,49.3,-165,-239,46,1016.53,49,0
"2020-03-20 10:12:45+00",6.4,7.4,,49.5,-246,-243,68,1016.52,49,0
"2020-03-20 10:17:45+00",4.9,5.9,,49.5,-392,-183,145,1016.45,49,0
"2020-03-20 10:22:45+00",4.3,5.3,,49.7,-731,-147,301,1016.48,49.1,0
"2020-03-20 10:27:45+00",4.9,5.9,,50.1,-864,-164,355,1016.47,49.1,0
"2020-03-20 10:32:45+00",6.1,7.1,,50.3,-1047,-205,423,1016.4,49.3,0
"2020-03-20 10:37:45+00",6.7,7.7,,50.4,-1474,-212,618,1016.38,49.4,0
"2020-03-20 10:42:45+00",7.7,8.7,,50.6,-1783,-207,748,1016.35,49.5,0
"2020-03-20 10:47:45+00",8.1,9.1,,50.8,-2412,-200,1044,1016.27,49.6,0
"2020-03-20 10:52:45+00",8.4,9.4,,51,-2213,-209,946,1016.27,49.8,0
"2020-03-20 10:57:45+00",8.9,8.9,,51.2,-1442,-279,595,1016.23,50.2,0
"2020-03-20 11:02:45+00",9.0,10.0,,51.4,-370,-1734,1286,1016.2,50.4,0
"2020-03-20 11:07:45+00",9.5,10.5,,51.4,-239,-1473,965,1016.19,50.7,0
"2020-03-20 11:12:45+00",9.7,10.7,,51.7,639,-2590,1454,1016.18,51,0
"2020-03-20 11:27:45+00",11.0,13.0,,52.3,654,-3149,1904,1016.28,51.5,0
"2020-03-20 11:32:45+00",11.8,13.8,,52.5,-1315,-323,482,1016.28,51.7,0
"2020-03-20 11:37:45+00",11.4,13.4,,52.6,-2344,-279,956,1016.27,51.8,0.2
"2020-03-20 11:42:45+00",11.1,13.1,,52.6,-1102,-314,379,1016.2,51.9,8.3
"2020-03-20 11:47:45+00",11.9,13.9,,52.6,-702,-367,171,1016.23,52,7.8
"2020-03-20 11:52:45+00",12.3,15.3,,52.7,-993,-344,321,1016.31,52.1,1.2
"2020-03-20 11:57:45+00",13.0,15.0,,52.8,-2144,-311,843,1016.4,52.3,52.3
"2020-03-20 12:02:45+00",12.1,14.1,,52.7,-1378,-295,491,1016.38,52.4,25
"2020-03-20 12:07:45+00",11.6,13.6,,52.7,1546,-3750,2063,1016.36,52.4,83.1
"2020-03-20 12:12:45+00",11.2,12.2,,52.7,-680,233,-252,1016.33,52.5,57.8
"2020-03-20 12:17:45+00",11.7,13.7,,53,-1255,1190,-818,1016.2,52.9,127.7
"2020-03-20 12:22:45+00",11.7,12.7,,53.3,-369,-357,-8,1016.17,53.3,133.5
"2020-03-20 12:27:45+00",9.6,11.6,,53.5,-668,318,-341,1016.12,53.4,40.5
"2020-03-20 12:32:45+00",11.4,13.4,,53.5,-1186,1071,-800,1016.11,53.2,24.1
"2020-03-20 12:37:45+00",13.1,15.1,,53.6,-1823,2003,-1337,1016.17,53.2,30.6
"2020-03-20 12:42:45+00",12.2,14.2,,53.5,-1314,1221,-872,1016,53.1,34.3
"2020-03-20 12:47:45+00",10.1,11.1,,53.6,-450,-85,-126,1015.9,53.3,191.1
"2020-03-20 12:52:45+00",9.7,10.7,,54.4,-260,-348,-3,1016,54.4,179.6
"2020-03-20 12:57:45+00",9.8,11.8,,55.2,-273,-358,22,1016.02,55,69.4
"2020-03-20 13:02:45+00",10.0,12.0,,55.2,-285,-342,3,1016.08,54.9,35.4
"2020-03-20 13:07:45+00",9.6,10.6,,55.4,-411,-71,-150,1016,54.7,25.1
"2020-03-20 13:12:45+00",9.8,10.8,,55.7,-773,524,-468,1015.88,55,46.1
"2020-03-20 13:17:45+00",9.2,11.2,,56.2,-839,743,-575,1015.76,55.5,51
"2020-03-20 13:22:45+00",8.7,9.7,,56.5,-425,45,-193,1015.78,55.9,69.9
"2020-03-20 13:27:45+00",7.7,10.7,,56.8,-249,-33,-135,1015.71,56.3,108.9
"2020-03-20 13:32:45+00",9.5,11.5,,56,-475,310,-393,1015.53,55.6,110.2
"2020-03-20 13:37:45+00",8.5,10.5,,55.4,-198,-184,-89,1015.59,55.1,80.4
"2020-03-20 13:42:45+00",9.2,12.2,,54.9,-163,-350,-6,1015.72,54.9,51
"2020-03-20 13:47:45+00",12.0,13.0,,55.4,-227,-459,-13,1015.69,55.1,62.7
"2020-03-20 13:52:45+00",10.8,12.8,,56,-172,-397,-27,1015.41,55.8,74.4
"2020-03-20 13:57:45+00",12.1,14.1,,56.2,-239,-465,-1,1015.57,56.1,67
"2020-03-20 14:02:45+00",11.8,13.8,,56.8,-281,-446,12,1015.59,56.4,58.1
"2020-03-20 14:07:45+00",15.5,18.5,,57.6,-310,-594,-7,1015.49,57,41.5
"2020-03-20 14:12:45+00",14.5,16.5,,58,-326,-550,2,1015.34,57.4,54.4
"2020-03-20 14:17:45+00",12.5,14.5,,58.2,-306,-476,14,1015.39,57.8,74.4
"2020-03-20 14:22:45+00",14.5,17.5,,58.7,-290,-558,-6,1015.3,58.3,83.4
"2020-03-20 14:27:45+00",14.0,17.0,,59,-326,-512,-4,1015.28,58.7,113.8
"2020-03-20 14:32:45+00",16.0,19.0,,59.4,-340,-615,1,1015.2,59.1,113.6
"2020-03-20 14:37:45+00",14.7,17.7,,59.9,-560,-155,-204,1015.22,59.8,334.9
"2020-03-20 14:42:45+00",17.5,19.5,,60.8,-1556,1335,-1099,1015.23,61.2,388.1
"2020-03-20 14:47:45+00",16.0,21.0,,61.7,-1180,677,-652,1015.23,62.1,325.2
"2020-03-20 14:52:45+00",16.5,19.5,,62.9,-1652,1371,-1038,1015.11,63.3,368.5
"2020-03-20 14:57:45+00",17.2,18.2,,63.5,-1927,1853,-1308,1014.95,64.1,210.5
"2020-03-20 15:02:45+00",18.7,22.7,,63.5,-694,-432,-125,1015.09,63.7,148
"2020-03-20 15:07:45+00",17.9,20.9,,63.4,-569,-565,-18,1015.11,63.6,139.3
"2020-03-20 15:12:45+00",17.8,19.8,,63.2,-557,-547,-37,1014.91,63.3,155.2
"2020-03-20 15:17:45+00",17.8,19.8,,63.4,-654,-350,-160,1014.92,63.5,129.8
"2020-03-20 15:22:45+00",17.2,19.2,,63,-481,-542,-49,1014.69,63.2,102.6
"2020-03-20 15:27:45+00",17.0,19.0,,62.9,-456,-617,5,1014.6,63.1,147.1
"2020-03-20 15:32:45+00",16.5,19.5,,62.9,-460,-538,-49,1014.66,63.1,93.9
"2020-03-20 15:37:45+00",18.2,21.2,,62.8,-502,-667,2,1014.83,62.9,90.5
"2020-03-20 15:42:45+00",17.4,20.4,,62.9,-485,-626,5,1014.87,62.9,57.4
"2020-03-20 15:47:45+00",17.5,20.5,,62.5,-384,-669,-9,1014.67,62.5,74.2
"2020-03-20 15:52:45+00",16.2,19.2,,62.5,-394,-601,3,1014.65,62.5,122.3
"2020-03-20 15:57:45+00",14.7,16.7,,62.8,-344,-558,27,1014.57,63,201.3
"2020-03-20 16:02:45+00",16.5,20.5,,63.3,-443,-561,-25,1014.45,63.6,182.4
"2020-03-20 16:07:45+00",16.2,20.2,,63.7,-444,-556,-8,1014.31,63.8,65.3
"2020-03-20 16:12:45+00",16.7,18.7,,63.9,-407,-629,6,1014.38,63.7,62.2
"2020-03-20 16:17:45+00",18.3,21.3,,63.4,-487,-598,-45,1014.46,63.4,120.1
"2020-03-20 16:22:45+00",19.5,22.5,,63.9,-663,-379,-181,1014.47,63.9,165
"2020-03-20 16:27:45+00",16.6,20.6,,64.4,-490,-506,-56,1014.36,64.4,130.6
"2020-03-20 16:32:45+00",19.7,21.7,,64.5,-654,-478,-149,1014.32,64.5,162.8
"2020-03-20 16:37:45+00",18.2,21.2,,64.9,-595,-465,-101,1014.34,64.7,77.1
"2020-03-20 16:42:45+00",16.1,18.1,,64.2,-377,-603,-7,1014.27,64.5,165.3
"2020-03-20 16:47:45+00",18.5,21.5,,64.8,-2191,2418,-1654,1014.42,65.5,521.9
"2020-03-20 16:52:45+00",16.4,19.4,,65.1,-1143,809,-770,1014.12,66.1,339.6
"2020-03-20 17:02:45+00",18.5,22.5,,66.7,-1700,1351,-1064,1014.05,67.7,247.9
"2020-03-20 17:07:45+00",19.5,22.5,,66.2,-924,-93,-319,1013.99,67.2,174.4
"2020-03-20 17:12:45+00",20.0,26.0,,66.9,-2115,1864,-1394,1014.03,67.3,343.7
"2020-03-20 17:17:45+00",17.4,20.4,,66.4,-1304,1114,-935,1013.99,67.6,242.5
"2020-03-20 17:22:45+00",14.8,16.8,,65.3,-1242,1179,-943,1013.8,66.4,131
"2020-03-20 17:27:45+00",17.0,22.0,,63.7,-2115,2775,-1876,1013.41,64.8,137.4
"2020-03-20 17:32:45+00",17.5,20.5,,62.9,-2025,2573,-1780,1013,63.7,145.7
"2020-03-20 17:37:45+00",15.0,18.0,,61.7,-490,-39,-334,1013.13,62.6,92.2
"2020-03-20 17:42:45+00",17.1,21.1,,60.3,-831,397,-632,1012.87,61,92.3
"2020-03-20 17:47:45+00",17.0,21.0,,59.2,-355,-447,-138,1012.89,59.9,102.2
"2020-03-20 17:52:45+00",19.4,22.4,,59.3,-332,-757,-14,1013.1,59.9,107.2
"2020-03-20 17:57:45+00",21.0,25.0,,59.5,-408,-817,10,1013.18,60,77.3
"2020-03-20 18:02:45+00",16.6,19.6,,59.6,-393,-630,4,1013.16,60,78.1
"2020-03-20 18:07:45+00",16.5,18.5,,59.4,-371,-628,4,1013.2,60,155.5
"2020-03-20 18:12:45+00",14.7,16.7,,59.7,-420,-529,18,1013.29,60.2,103.5
"2020-03-20 18:17:45+00",19.4,24.4,,60.1,-603,-625,17,1013.44,60.5,104.9
"2020-03-20 18:22:45+00",17.8,20.8,,59.6,-553,-581,13,1013.4,60.2,98
"2020-03-20 18:27:45+00",16.7,19.7,,59.5,-482,-589,13,1013.15,60,79.2
"2020-03-20 18:32:45+00",17.3,20.3,,59.9,-490,-627,21,1012.91,60.2,68.1
"2020-03-20 18:37:45+00",18.0,20.0,,60,-465,-667,5,1012.66,60.3,80
"2020-03-20 18:42:45+00",15.8,17.8,,60.1,-423,-577,-1,1012.77,60.5,87
"2020-03-20 18:47:45+00",14.6,16.6,,60.3,-295,-564,18,1012.36,60.6,70.2
"2020-03-20 18:52:45+00",16.7,19.7,,60.5,-284,-657,-10,1011.79,60.7,66.2
"2020-03-20 18:57:45+00",16.6,19.6,,60.9,-350,-644,17,1011.62,60.9,74.7
"2020-03-20 19:02:45+00",18.7,21.7,,61.5,-357,-669,-43,1011.25,61.4,68.8
"2020-03-20 19:07:45+00",18.8,24.8,,61,-853,425,-651,1010.62,61.3,113.8
"2020-03-20 19:12:45+00",19.4,24.4,,60.7,-1244,1006,-960,1010.43,61.4,273.1
"2020-03-20 19:17:45+00",19.0,23.0,,60.3,-546,-670,13,1011.33,61.1,120
"2020-03-20 19:22:45+00",18.2,21.2,,60.8,-601,-509,19,1011.64,61.1,85.7
"2020-03-20 19:27:45+00",15.6,16.6,,61.3,-541,-409,33,1011.31,61.5,106.7
"2020-03-20 19:32:45+00",19.7,22.7,,61.2,-671,-519,12,1011.08,61.7,156.5
"2020-03-20 19:37:45+00",19.1,21.1,,61.3,-634,-541,-57,1010.9,62.1,403.3
"2020-03-20 19:42:45+00",20.2,23.2,,61.6,-587,-710,7,1010.57,62.6,190.2
"2020-03-20 19:47:45+00",18.4,20.4,,61.6,-561,-631,32,1010.53,62.6,237.4
"2020-03-20 19:52:45+00",18.7,22.7,,62.3,-601,-556,31,1010.55,63.3,209.4
"2020-03-20 19:57:45+00",20.2,24.2,,62.4,-669,-566,8,1010.7,63.6,282.2
"2020-03-20 20:02:45+00",20.3,24.3,,62.3,-709,-536,18,1010.72,63.6,77.4
"2020-03-20 20:07:45+00",17.7,20.7,,62,-618,-466,33,1010.79,63.1,117.9
"2020-03-20 20:12:45+00",19.2,22.2,,62.3,-614,-599,12,1010.69,63,150.4
"2020-03-20 20:17:45+00",20.3,23.3,,63.2,-637,-633,-14,1010.44,63.9,246.5
"2020-03-20 20:22:45+00",20.3,23.3,,63.9,-633,-667,7,1010.4,64.6,209.4
"2020-03-20 20:27:45+00",20.9,24.9,,63.7,-663,-671,26,1010.26,64.7,216.6
"2020-03-20 20:32:45+00",18.4,21.4,,63.4,-620,-518,38,1010.26,64.6,215
"2020-03-20 20:37:45+00",18.1,21.1,,63.6,-602,-511,28,1010.32,64.8,196.9
"2020-03-20 20:42:45+00",19.0,21.0,,63.9,-647,-503,30,1010.48,65.1,188.1
"2020-03-20 20:47:45+00",16.4,19.4,,64.1,-584,-421,55,1010.66,65.5,180.1
"2020-03-20 20:52:45+00",19.0,22.0,,64.2,-636,-520,21,1010.67,65.6,170.8
"2020-03-20 20:57:45+00",16.6,19.6,,64.6,-510,-557,25,1010.7,65.7,166.2
"2020-03-20 21:02:45+00",20.6,24.6,,64.8,-620,-688,4,1010.72,65.8,158
"2020-03-20 21:07:45+00",20.3,22.3,,64.3,-652,-640,17,1010.99,65.5,147
"2020-03-20 21:12:45+00",17.9,20.9,,63.9,-537,-600,32,1010.95,65,139.5
"2020-03-20 21:17:45+00",19.6,22.6,,63.4,-522,-714,4,1010.95,64.5,131.3
"2020-03-20 21:22:45+00",16.7,20.7,,63.3,-485,-591,24,1011.04,64.2,121.8
"2020-03-20 21:27:45+00",18.6,22.6,,63.2,-505,-675,11,1011.11,63.9,114.4
"2020-03-20 21:32:45+00",19.3,24.3,,63.1,-600,-529,-100,1011.09,63.8,106.8
"2020-03-20 21:37:45+00",20.2,23.2,,62.8,-557,-731,9,1011.18,63.4,99.8
"2020-03-20 21:42:45+00",21.5,24.5,,62.9,-616,-747,4,1011.12,63.4,90.1
"2020-03-20 21:47:45+00",21.8,26.8,,62.5,-635,-758,7,1011.22,63,80.6
"2020-03-20 21:52:45+00",22.1,25.1,,62.6,-618,-794,9,1011.19,62.9,74.5
"2020-03-20 21:57:45+00",20.9,25.9,,62.9,-617,-733,23,1011.33,63,69.2
"2020-03-20 22:02:45+00",20.6,23.6,,62.5,-605,-708,2,1011.3,62.9,50.9
"2020-03-20 22:07:45+00",20.2,24.2,,62.1,-597,-708,25,1011.41,62.5,40.4
"2020-03-20 22:12:45+00",21.5,25.5,,61.8,-637,-750,15,1011.48,62,32.5
"2020-03-20 22:17:45+00",16.3,18.3,,61.4,-505,-542,19,1011.68,61.7,21
"2020-03-20 22:22:45+00",16.3,18.3,,61.7,-441,-595,14,1011.53,61.5,0
"2020-03-20 22:27:45+00",18.8,20.8,,62.2,-526,-662,6,1011.65,61.5,0
"2020-03-20 22:32:45+00",14.1,16.1,,61.9,-384,-514,5,1011.68,61.2,0
"2020-03-20 22:37:45+00",16.6,18.6,,62.1,-380,-628,0,1011.57,61.1,0
"2020-03-20 22:42:45+00",15.5,19.5,,62.1,-321,-594,7,1011.68,61.1,0
"2020-03-20 22:47:45+00",13.7,15.7,,61.6,-226,-547,-3,1011.8,60.9,0
"2020-03-20 22:52:45+00",13.7,15.7,,60.5,-253,-532,-11,1011.69,59.7,0
"2020-03-20 22:57:45+00",13.2,15.2,,59.5,-270,-506,-1,1011.92,58.9,0
"2020-03-20 23:02:45+00",12.6,14.6,,59.3,-305,-472,3,1011.95,58.7,0
"2020-03-20 23:07:45+00",11.9,13.9,,59.3,-283,-449,3,1011.88,58.5,0
"2020-03-20 23:12:45+00",12.7,14.7,,59.4,-293,-487,9,1011.99,58.4,0
"2020-03-20 23:17:45+00",13.6,15.6,,59.5,-287,-516,-5,1011.92,58.4,0
"2020-03-20 23:22:45+00",14.0,15.0,,59.8,-298,-529,-6,1011.91,58.7,0
"2020-03-20 23:27:45+00",15.2,17.2,,60,-324,-576,-3,1011.98,58.9,0
"2020-03-20 23:32:45+00",15.2,18.2,,60,-314,-581,4,1011.99,59,0
"2020-03-20 23:37:45+00",12.5,14.5,,59.7,-250,-486,13,1011.99,58.8,0
"2020-03-20 23:42:45+00",13.5,15.5,,59.2,-279,-520,5,1012.04,58.5,0
"2020-03-20 23:47:45+00",13.2,14.2,,58.7,-291,-499,-1,1012.09,57.9,0
"2020-03-20 23:52:45+00",13.9,14.9,,58.5,-258,-526,-9,1012.08,57.7,0
"2020-03-20 23:57:45+00",13.1,14.1,,58.7,-303,-491,5,1012.12,57.7,0
